Miscellaneous Local Product
Issued by NWS Hastings, NE

Home | Current Version | Previous Version | Graphics & Text | Print | Product List | Glossary On
Versions: 1 2 3 4 5 6 7 8 9 10 11 12 13 14 15 16 17 18 19 20 21 22 23 24 25 26 27 28 29 30 31 32 33 34 35 36 37 38 39 40 41 42 43 44 45 46 47 48 49 50
000
AXUS43 KGID 240802
MISGRI

GID CWA HOURLY WEATHER ROUNDUP
NATIONAL WEATHER SERVICE HASTINGS NE
300 AM CDT FRI OCT 24 2014

NOTE: "FAIR" INDICATES FEW OR NO CLOUDS BELOW 12,000 FEET WITH NO
SIGNIFICANT WEATHER AND/OR OBSTRUCTIONS TO VISIBILITY.

...SOUTH CENTRAL NEBRASKA...

CITY           SKY/WX    TMP DP  RH WIND       PRES   REMARKS
GRAND ISLAND   CLEAR     58  55  90 SW12      29.97F
HASTINGS       CLEAR     57  53  86 S8        29.98F FOG
KEARNEY        CLEAR     54  52  94 S9        29.99F
ORD            CLEAR     56  53  90 S6        29.93F
YORK           CLEAR     57  57 100 S9        29.98S
AURORA         CLEAR     57  57 100 SW10      29.98F
LEXINGTON      PTCLDY    58  55  89 CALM      29.99R
HOLDREGE       PTCLDY    56  54  92 CALM      30.00S
HEBRON         CLEAR     60  56  88 S6        30.00S FOG

...NEBRASKA PANHANDLE...

CITY           SKY/WX    TMP DP  RH WIND       PRES   REMARKS
CHADRON        CLOUDY    39  34  82 CALM      29.94S
ALLIANCE       MOCLDY    45  32  60 CALM      29.99S
SCOTTSBLUFF    CLOUDY    45  37  73 CALM      30.02R
SIDNEY         MOCLDY    47  33  58 SW9       30.06S

...WESTERN AND NORTH CENTRAL NEBRASKA...

CITY           SKY/WX    TMP DP  RH WIND       PRES   REMARKS
VALENTINE      MOCLDY    40  35  83 W6        29.93R
AINSWORTH      MOCLDY    46  38  71 W5        29.92S
ONEILL         MOCLDY    54  53  96 SW9       29.90S
BROKEN BOW     CLEAR     55  51  86 SW3       29.95F
IMPERIAL       PTCLDY    49  39  68 W8        30.02S
NORTH PLATTE   PTCLDY    46  44  93 W5        29.99S
MCCOOK         PTCLDY    54  51  90 W9        30.01F FOG

...EASTERN NEBRASKA...

CITY           SKY/WX    TMP DP  RH WIND       PRES   REMARKS
NORFOLK        PTCLDY    56  54  93 S9        29.93F
SO SIOUX CITY  PTCLDY    52  48  86 SE8       29.93F
COLUMBUS       CLEAR     57  52  82 SW9       29.97F
ALBION         CLEAR     55  52  90 SE6       29.94F FOG
OMAHA EPPLEY   NOT AVBL
OFFUTT AFB     PTCLDY    54  54  99 VRB3      29.99F
MILLARD        PTCLDY    54  51  90 SE3       29.99S
LINCOLN        PTCLDY    60  56  86 S9        29.99F
NEBRASKA CITY  CLEAR     56  56 100 S8        30.01F FOG
BEATRICE       PTCLDY    59  57  95 S8        30.00F FOG
FALLS CITY     CLOUDY    59  58  96 S10       30.03R FOG

...NORTHERN KANSAS...

CITY           SKY/WX    TMP DP  RH WIND       PRES   REMARKS
GOODLAND       CLEAR     55  51  86 SW10      30.08S
HILL CITY      PTCLDY    58  55  90 SW5       30.02F
NORTON         SUNNY     50  48  93 SW7       30.00S FOG
PHILLIPSBURG   FOG       52  52 100 CALM      30.01S VSB 1/4
SMITH CENTER   FOG       50  50 100 SE6       30.01F VSB 3/4
BELOIT         CLEAR     57  57 100 SE5       30.01F
HAYS           CLEAR     57  52  82 SW7       30.04S
RUSSELL        CLEAR     59  57  93 S12       30.02F
CONCORDIA      CLEAR     60  59  96 S9        30.02S FOG
SALINA         CLEAR     59  56  89 S7        30.04F FOG
TOPEKA         PTCLDY    59  58  96 S6        30.06F FOG



USA.gov is the U.S. government's official web portal to all federal, state and local government web resources and services.